sat.trackr.live / text

‹ back to catalog

STARLINK-34514

NORAD 64416 · 2025-129E

PAYLOAD ACTIVE UNKNOWN

§ Identity

Operator
Country
US
Launch date
2025-06-17
Launch site
AFWTR
Launch vehicle
Mass (kg)
RCS (m²)

Purposes: comms

External: N2YO · Heavens-Above · Gunter

§ Orbital elements

Epoch: 2026-09-20T12:12:00.710784Z

Period
94.14 min
Inclination
70.0004°
Eccentricity
0.0003396
Mean motion
15.29593056 rev/d
Perigee alt
474.7 km
Apogee alt
479.4 km
Semi-major
6,855.2 km
B*
2.6842e-4
RAAN
300.6836°
Arg perigee
275.2580°
Mean anomaly
84.8208°
Rev number
7,053

§ Raw data

STARLINK-345141 64416U 25129E   26263.50834156  .00007599  00000+0  26842-3 0  99952 64416  70.0004 300.6836 0003396 275.2580  84.8208 15.29593056 70530

JSON: /api/v1/satellites/64416 · /tle

For live sub-satellite position, see the globe view (requires WebGL).

§ Visibility from observer

Set your observer location to see the next 7 days of passes ≥ 10°. The values pass through the URL so the page stays shareable.

No JS? Fill the form by hand. The geolocation button needs JavaScript.